• en Suisse
  • Liste des pays
  • À 7 jours
  • Température de l'eau
  • Carte satellitaire
  • Carte météo
  • Widgets météo
  • user-avatar
    Se connecter

    Météo par heure à Serhiivs'ke

    Ce jour, 19 Juin, Mardi

    Heure Température Précipitation Vent Pression Humidité
    00:00 +20°C° 0 mm 3 m/s 750 mmHg 59%
    01:00 +19°C° 0 mm 2 m/s 750 mmHg 61%
    02:00 +19°C° 0 mm 2 m/s 750 mmHg 62%
    03:00 +19°C° 0 mm 2 m/s 750 mmHg 65%
    04:00 +19°C° 0 mm 2 m/s 750 mmHg 68%
    05:00 +19°C° 0 mm 2 m/s 751 mmHg 70%
    06:00 +21°C° 0 mm 2 m/s 751 mmHg 65%
    07:00 +24°C° 0 mm 3 m/s 751 mmHg 61%
    08:00 +26°C° 0 mm 3 m/s 751 mmHg 56%
    09:00 +27°C° 0 mm 3 m/s 752 mmHg 52%
    10:00 +28°C° 0 mm 3 m/s 752 mmHg 48%
    11:00 +29°C° 0 mm 3 m/s 752 mmHg 44%
    12:00 +30°C° 0 mm 3 m/s 752 mmHg 43%
    13:00 +30°C° 0 mm 3 m/s 752 mmHg 41%
    14:00 +31°C° 0 mm 3 m/s 751 mmHg 40%
    15:00 +30°C° 0 mm 3 m/s 751 mmHg 42%
    16:00 +30°C° 0 mm 3 m/s 751 mmHg 44%
    17:00 +30°C° 0 mm 3 m/s 751 mmHg 45%
    18:00 +28°C° 0 mm 3 m/s 751 mmHg 52%
    19:00 +26°C° 0 mm 3 m/s 751 mmHg 58%
    20:00 +25°C° 0 mm 3 m/s 751 mmHg 64%
    21:00 +24°C° 0 mm 2 m/s 752 mmHg 66%
    22:00 +23°C° 0 mm 2 m/s 752 mmHg 68%
    23:00 +21°C° 0 mm 2 m/s 752 mmHg 70%

    Demain, 20 Juin, Mercredi

    Heure Température Précipitation Vent Pression Humidité
    00:00 +21°C° 0 mm 2 m/s 752 mmHg 70%
    01:00 +22°C° 0 mm 1 m/s 752 mmHg 71%
    02:00 +21°C° 0 mm 1 m/s 752 mmHg 71%
    03:00 +21°C° 0 mm 1 m/s 752 mmHg 73%
    04:00 +21°C° 0 mm 2 m/s 753 mmHg 74%
    05:00 +21°C° 0 mm 2 m/s 753 mmHg 76%
    06:00 +23°C° 0 mm 2 m/s 753 mmHg 71%
    07:00 +25°C° 0 mm 2 m/s 753 mmHg 66%
    08:00 +27°C° 0 mm 2 m/s 753 mmHg 61%
    09:00 +28°C° 0,2 mm 2 m/s 753 mmHg 58%
    10:00 +29°C° 0,2 mm 2 m/s 753 mmHg 55%
    11:00 +30°C° 0,2 mm 3 m/s 753 mmHg 52%
    12:00 +31°C° 0,2 mm 3 m/s 753 mmHg 52%
    13:00 +31°C° 0,2 mm 3 m/s 753 mmHg 52%
    14:00 +32°C° 0,2 mm 4 m/s 753 mmHg 52%
    15:00 +30°C° 0,1 mm 4 m/s 753 mmHg 54%
    16:00 +30°C° 0,1 mm 4 m/s 752 mmHg 56%
    17:00 +29°C° 0,1 mm 5 m/s 752 mmHg 58%
    18:00 +28°C° 0 mm 4 m/s 752 mmHg 63%
    19:00 +26°C° 0 mm 4 m/s 753 mmHg 68%
    20:00 +25°C° 0 mm 3 m/s 753 mmHg 74%
    21:00 +24°C° 0 mm 3 m/s 753 mmHg 76%
    22:00 +22°C° 0 mm 3 m/s 753 mmHg 78%
    23:00 +21°C° 0 mm 3 m/s 753 mmHg 80%

    Après-demain, 21 Juin, Jeudi

    Heure Température Précipitation Vent Pression Humidité
    00:00 +21°C° 0 mm 3 m/s 753 mmHg 82%
    01:00 +20°C° 0 mm 3 m/s 753 mmHg 83%
    02:00 +20°C° 0 mm 3 m/s 753 mmHg 85%
    03:00 +20°C° 0 mm 3 m/s 753 mmHg 84%
    04:00 +19°C° 0 mm 3 m/s 753 mmHg 83%
    05:00 +19°C° 0 mm 3 m/s 753 mmHg 82%
    06:00 +21°C° 0 mm 3 m/s 753 mmHg 74%
    07:00 +22°C° 0 mm 4 m/s 753 mmHg 65%
    08:00 +25°C° 0 mm 4 m/s 753 mmHg 56%
    09:00 +26°C° 0 mm 4 m/s 753 mmHg 52%
    10:00 +27°C° 0 mm 4 m/s 753 mmHg 48%
    11:00 +28°C° 0 mm 4 m/s 753 mmHg 43%
    12:00 +29°C° 0 mm 4 m/s 752 mmHg 42%
    13:00 +29°C° 0 mm 4 m/s 752 mmHg 40%
    14:00 +30°C° 0 mm 4 m/s 751 mmHg 38%
    15:00 +29°C° 0 mm 4 m/s 751 mmHg 40%
    16:00 +29°C° 0 mm 4 m/s 751 mmHg 42%
    17:00 +29°C° 0 mm 4 m/s 750 mmHg 43%
    18:00 +27°C° 0 mm 4 m/s 750 mmHg 49%
    19:00 +25°C° 0 mm 3 m/s 750 mmHg 55%
    20:00 +24°C° 0 mm 3 m/s 750 mmHg 60%
    21:00 +22°C° 0 mm 3 m/s 750 mmHg 62%
    22:00 +21°C° 0 mm 3 m/s 750 mmHg 63%
    23:00 +21°C° 0 mm 3 m/s 750 mmHg 65%

    22 Juin, Vendredi

    Heure Température Précipitation Vent Pression Humidité
    00:00 +20°C° 0 mm 3 m/s 749 mmHg 65%
    01:00 +20°C° 0 mm 2 m/s 749 mmHg 66%
    02:00 +20°C° 0 mm 2 m/s 749 mmHg 67%
    03:00 +20°C° 0 mm 2 m/s 748 mmHg 69%
    04:00 +20°C° 0 mm 2 m/s 748 mmHg 70%
    05:00 +20°C° 0 mm 2 m/s 748 mmHg 72%
    06:00 +23°C° 0 mm 2 m/s 748 mmHg 68%
    07:00 +25°C° 0 mm 2 m/s 748 mmHg 64%
    08:00 +27°C° 0 mm 3 m/s 748 mmHg 60%
    09:00 +28°C° 0 mm 3 m/s 747 mmHg 56%
    10:00 +30°C° 0 mm 3 m/s 747 mmHg 51%
    11:00 +31°C° 0 mm 3 m/s 747 mmHg 47%
    12:00 +31°C° 0,1 mm 3 m/s 746 mmHg 47%
    13:00 +31°C° 0,1 mm 3 m/s 746 mmHg 47%
    14:00 +31°C° 0,1 mm 3 m/s 745 mmHg 47%
    15:00 +31°C° 0 mm 3 m/s 745 mmHg 48%
    16:00 +31°C° 0 mm 2 m/s 745 mmHg 49%
    17:00 +31°C° 0 mm 2 m/s 745 mmHg 49%
    18:00 +29°C° 0,2 mm 2 m/s 745 mmHg 53%
    19:00 +28°C° 0,2 mm 2 m/s 745 mmHg 58%
    20:00 +26°C° 0,2 mm 2 m/s 745 mmHg 62%
    21:00 +25°C° 0,3 mm 2 m/s 745 mmHg 65%
    22:00 +24°C° 0,3 mm 2 m/s 745 mmHg 68%
    23:00 +24°C° 0,3 mm 1 m/s 745 mmHg 71%

    23 Juin, Samedi

    Heure Température Précipitation Vent Pression Humidité
    00:00 +23°C° 0,5 mm 2 m/s 745 mmHg 75%
    01:00 +21°C° 0,5 mm 2 m/s 745 mmHg 80%
    02:00 +21°C° 0,5 mm 2 m/s 745 mmHg 84%
    03:00 +20°C° 0,1 mm 3 m/s 745 mmHg 86%
    04:00 +19°C° 0,1 mm 4 m/s 745 mmHg 88%
    05:00 +19°C° 0,1 mm 4 m/s 745 mmHg 89%
    06:00 +19°C° 0,4 mm 5 m/s 745 mmHg 87%
    07:00 +17°C° 0,4 mm 6 m/s 745 mmHg 85%
    08:00 +17°C° 0,4 mm 7 m/s 746 mmHg 83%
    09:00 +16°C° 0,4 mm 8 m/s 746 mmHg 82%
    10:00 +16°C° 0,4 mm 8 m/s 746 mmHg 81%
    11:00 +15°C° 0,4 mm 9 m/s 747 mmHg 80%
    12:00 +13°C° 1,2 mm 9 m/s 747 mmHg 81%
    13:00 +13°C° 1,2 mm 9 m/s 748 mmHg 81%
    14:00 +12°C° 1,2 mm 9 m/s 748 mmHg 82%
    15:00 +13°C° 0,1 mm 9 m/s 748 mmHg 77%
    16:00 +13°C° 0,1 mm 8 m/s 749 mmHg 72%
    17:00 +15°C° 0,1 mm 8 m/s 749 mmHg 67%
    18:00 +14°C° 0 mm 6 m/s 749 mmHg 71%
    19:00 +14°C° 0 mm 5 m/s 749 mmHg 75%
    20:00 +13°C° 0 mm 3 m/s 750 mmHg 78%
    21:00 +13°C° 0 mm 2 m/s 750 mmHg 81%
    22:00 +13°C° 0 mm 2 m/s 750 mmHg 84%
    23:00 +12°C° 0 mm 2 m/s 751 mmHg 87%

    24 Juin, Dimanche

    Heure Température Précipitation Vent Pression Humidité
    00:00 +12°C° 0 mm 2 m/s 751 mmHg 88%
    01:00 +12°C° 0 mm 2 m/s 751 mmHg 89%
    02:00 +12°C° 0 mm 2 m/s 751 mmHg 89%
    03:00 +12°C° 0 mm 2 m/s 751 mmHg 89%
    04:00 +12°C° 0 mm 2 m/s 752 mmHg 88%
    05:00 +11°C° 0 mm 3 m/s 752 mmHg 87%
    06:00 +13°C° 0 mm 3 m/s 752 mmHg 79%
    07:00 +16°C° 0 mm 3 m/s 752 mmHg 71%
    08:00 +18°C° 0 mm 3 m/s 752 mmHg 63%
    09:00 +19°C° 0 mm 3 m/s 753 mmHg 58%
    10:00 +21°C° 0 mm 4 m/s 753 mmHg 52%
    11:00 +22°C° 0 mm 4 m/s 753 mmHg 47%
    12:00 +22°C° 0 mm 4 m/s 753 mmHg 45%
    13:00 +23°C° 0 mm 4 m/s 752 mmHg 44%
    14:00 +23°C° 0 mm 4 m/s 752 mmHg 42%
    15:00 +23°C° 0 mm 4 m/s 752 mmHg 43%
    16:00 +24°C° 0 mm 3 m/s 752 mmHg 45%
    17:00 +24°C° 0 mm 3 m/s 752 mmHg 46%
    18:00 +21°C° 0 mm 3 m/s 753 mmHg 52%
    19:00 +19°C° 0 mm 2 m/s 753 mmHg 59%
    20:00 +18°C° 0 mm 2 m/s 753 mmHg 65%
    21:00 +17°C° 0 mm 2 m/s 753 mmHg 68%
    22:00 +16°C° 0 mm 2 m/s 753 mmHg 71%
    23:00 +16°C° 0 mm 1 m/s 754 mmHg 74%
    Voir plus